UAE52RB OMDB-LFPG

Flight info

Callsign UAE52RB
Flight time N/A
Altitude 35000
Route ANVIX L223 TARDI N629 BOTAM Y855 LAKLU/N0501F360 Q204 NALKI G652 TOKRA DCT ALROK DCT BOSOB DCT ITRUX Y511 PMA Z712 SIGRO/N0498F380 Z712 WEJ L677 CVO L617 NOZ L551 ANTAR UN133 GUDIS DCT RIGRO DCT AMISI DCT DISOR DCT LONTA UL608 DOLEV DCT PEVAL/N0486F400 DCT RESIA DCT SOPER DCT ELMUR L613 HOC/N0484F390 DCT MOROK/N0465F350 DCT PENDU DCT JAVVU DCT GIVRI/N0478F380 DCT TINIL
Aircraft A388/J-SADE2E3FGHIJ3J4J5M1RWXY/LB1D1

Departure

Time 2026-05-05 07:18
Airport Dubai International Airport (OMDB)

Arrival

Time N/A
Airport Charles de Gaulle International Airport (LFPG)
Time Latitude Longitude Altitude Speed Heading
2026-05-05 06:40 25.24356 55.37366 27 ft 0 kts 210°
2026-05-05 06:58 25.24359 55.37368 27 ft 3 kts 210°
2026-05-05 06:59 25.24382 55.37384 26 ft 4 kts 213°
2026-05-05 06:59 25.24400 55.37396 25 ft 4 kts 216°
2026-05-05 06:59 25.24419 55.37416 25 ft 4 kts 241°
2026-05-05 06:59 25.24425 55.37442 24 ft 4 kts 287°
2026-05-05 07:00 25.24414 55.37467 26 ft 4 kts 301°
2026-05-05 07:00 25.24405 55.37483 25 ft 3 kts 301°
2026-05-05 07:00 25.24402 55.37487 26 ft 0 kts 301°
2026-05-05 07:04 25.24411 55.37471 26 ft 7 kts 300°
2026-05-05 07:04 25.24441 55.37413 27 ft 10 kts 299°
2026-05-05 07:04 25.24474 55.37348 27 ft 8 kts 305°
2026-05-05 07:05 25.24531 55.37292 27 ft 16 kts 319°
2026-05-05 07:05 25.24632 55.37211 27 ft 19 kts 321°
2026-05-05 07:05 25.24716 55.37099 27 ft 19 kts 303°
2026-05-05 07:05 25.24783 55.36978 27 ft 18 kts 300°
2026-05-05 07:06 25.24835 55.36854 27 ft 17 kts 292°
2026-05-05 07:06 25.24869 55.36728 27 ft 17 kts 285°
2026-05-05 07:06 25.24920 55.36610 27 ft 17 kts 302°
2026-05-05 07:06 25.24982 55.36499 27 ft 17 kts 300°
2026-05-05 07:07 25.25041 55.36382 27 ft 18 kts 302°
2026-05-05 07:07 25.25109 55.36268 27 ft 18 kts 303°
2026-05-05 07:07 25.25173 55.36151 27 ft 18 kts 300°
2026-05-05 07:07 25.25236 55.36034 27 ft 18 kts 301°
2026-05-05 07:08 25.25303 55.35918 27 ft 18 kts 302°
2026-05-05 07:08 25.25370 55.35799 27 ft 18 kts 301°
2026-05-05 07:08 25.25435 55.35680 27 ft 18 kts 301°
2026-05-05 07:08 25.25498 55.35563 27 ft 17 kts 301°
2026-05-05 07:09 25.25559 55.35452 27 ft 17 kts 301°
2026-05-05 07:09 25.25621 55.35340 27 ft 17 kts 302°
2026-05-05 07:09 25.25683 55.35237 27 ft 14 kts 314°
2026-05-05 07:09 25.25774 55.35224 27 ft 16 kts 30°
2026-05-05 07:10 25.25885 55.35297 27 ft 20 kts 30°
2026-05-05 07:10 25.25989 55.35387 27 ft 17 kts 72°
2026-05-05 07:10 25.25988 55.35518 27 ft 18 kts 108°
2026-05-05 07:10 25.25926 55.35647 27 ft 20 kts 123°
2026-05-05 07:11 25.25849 55.35779 27 ft 21 kts 121°
2026-05-05 07:11 25.25768 55.35922 27 ft 22 kts 122°
2026-05-05 07:11 25.25683 55.36072 27 ft 23 kts 121°
2026-05-05 07:11 25.25599 55.36229 27 ft 24 kts 121°
2026-05-05 07:12 25.25513 55.36389 27 ft 25 kts 121°
2026-05-05 07:12 25.25424 55.36553 27 ft 25 kts 122°
2026-05-05 07:12 25.25333 55.36715 27 ft 23 kts 122°
2026-05-05 07:12 25.25247 55.36867 27 ft 23 kts 122°
2026-05-05 07:13 25.25161 55.37020 27 ft 24 kts 122°
2026-05-05 07:13 25.25073 55.37178 27 ft 24 kts 122°
2026-05-05 07:13 25.24989 55.37327 27 ft 21 kts 121°
2026-05-05 07:13 25.24913 55.37472 27 ft 22 kts 121°
2026-05-05 07:14 25.24831 55.37621 27 ft 23 kts 121°
2026-05-05 07:14 25.24749 55.37771 27 ft 22 kts 121°
2026-05-05 07:14 25.24682 55.37889 27 ft 12 kts 122°
2026-05-05 07:14 25.24674 55.37950 27 ft 5 kts 57°
2026-05-05 07:15 25.24686 55.37964 27 ft 0 kts 37°
2026-05-05 07:15 25.24751 55.38013 27 ft 14 kts 33°
2026-05-05 07:15 25.24800 55.38019 27 ft 6 kts 327°
2026-05-05 07:16 25.24814 55.38004 27 ft 0 kts 307°
2026-05-05 07:17 25.24902 55.37852 27 ft 58 kts 301°
2026-05-05 07:17 25.25234 55.37249 27 ft 121 kts 302°
2026-05-05 07:17 25.25759 55.36308 28 ft 161 kts 301°
2026-05-05 07:18 25.26376 55.35198 298 ft 168 kts 301°
2026-05-05 07:18 25.26957 55.34125 787 ft 164 kts 300°
2026-05-05 07:18 25.27554 55.33004 1068 ft 177 kts 301°
2026-05-05 07:18 25.28228 55.31802 1339 ft 188 kts 302°
2026-05-05 07:19 25.28922 55.30545 1649 ft 195 kts 296°
2026-05-05 07:19 25.29212 55.29050 1782 ft 210 kts 264°
2026-05-05 07:19 25.28771 55.27492 1894 ft 217 kts 241°
2026-05-05 07:19 25.28136 55.26186 2079 ft 228 kts 240°
2026-05-05 07:20 25.27411 55.24571 2347 ft 244 kts 243°
2026-05-05 07:20 25.26689 55.22832 2869 ft 248 kts 244°
2026-05-05 07:20 25.25971 55.21090 3475 ft 248 kts 245°
2026-05-05 07:20 25.25249 55.19356 4088 ft 249 kts 245°
2026-05-05 07:21 25.24401 55.17739 4662 ft 251 kts 226°
2026-05-05 07:21 25.22935 55.16674 5250 ft 251 kts 195°
2026-05-05 07:21 25.21201 55.16487 5774 ft 255 kts 175°
2026-05-05 07:21 25.19425 55.16835 6118 ft 265 kts 154°
2026-05-05 07:22 25.17950 55.18054 6652 ft 264 kts 125°
2026-05-05 07:22 25.17082 55.19802 7192 ft 266 kts 114°
2026-05-05 07:22 25.16245 55.21712 7389 ft 285 kts 115°
2026-05-05 07:22 25.15336 55.23681 7928 ft 288 kts 116°
2026-05-05 07:23 25.14402 55.25647 8538 ft 290 kts 116°
2026-05-05 07:23 25.13457 55.27614 9215 ft 288 kts 116°
2026-05-05 07:23 25.12524 55.29549 9810 ft 290 kts 116°
2026-05-05 07:23 25.11561 55.31547 10290 ft 295 kts 116°
2026-05-05 07:24 25.10601 55.33567 10774 ft 299 kts 114°
2026-05-05 07:24 25.09749 55.35653 11266 ft 303 kts 113°
2026-05-05 07:24 25.08872 55.37796 11752 ft 308 kts 114°
2026-05-05 07:24 25.07979 55.39963 12231 ft 312 kts 114°
2026-05-05 07:25 25.07068 55.42171 12717 ft 317 kts 114°
2026-05-05 07:25 25.06175 55.44424 12888 ft 332 kts 112°
2026-05-05 07:25 25.05257 55.46833 13019 ft 347 kts 112°
2026-05-05 07:25 25.04304 55.49345 13167 ft 362 kts 112°
2026-05-05 07:26 25.03306 55.51960 13427 ft 373 kts 113°
2026-05-05 07:26 25.02288 55.54604 13865 ft 376 kts 114°
2026-05-05 07:26 25.01067 55.57139 14342 ft 378 kts 122°
2026-05-05 07:26 24.99693 55.59633 14816 ft 381 kts 121°
2026-05-05 07:27 24.98325 55.62155 15280 ft 383 kts 121°
2026-05-05 07:27 24.96958 55.64688 15749 ft 386 kts 121°
2026-05-05 07:27 24.95596 55.67215 16199 ft 389 kts 121°
2026-05-05 07:27 24.94193 55.69791 16655 ft 392 kts 123°
2026-05-05 07:28 24.92600 55.72249 17104 ft 394 kts 127°
2026-05-05 07:28 24.90981 55.74671 17562 ft 397 kts 127°